Location: Unspecified
(0.0000°N, 0.0000°E)
Time: 22:35:26
(UTC+00:00)

Vanguard 2 - Pass Details

Date: 04 October 2020
Orbit: 554 x 2937 km, 32.9° (Epoch: 27 October)

Event Time Altitude Azimuth Distance (km) Brightness Sun altitude
Rises 17:06:52 0° 217° (SW) 4,955 12.3 10.4°
Reaches altitude 10° 17:15:16 10° 180° (S) 4,720 11.6 8.3°
Maximum altitude 17:17:24 10° 171° (S) 4,846 11.6 7.8°
Drops below altitude 10° 17:19:39 10° 162° (SSE) 5,044 11.6 7.2°
Sets 17:31:01 0° 127° (SE) 6,632 11.8 4.4°
